Princeton, MN

6:10 PM CDT on September 22, 2019 (GMT -0500)
Princeton Municipal

Weather History for KPNM - July, 2019

Change the Weather History Date:

Thursday, July 18, 2019

  Actual Average Record
Temperature  
Mean Temperature 78 °F -  
Max Temperature 87 °F 79 °F 91 °F (2001)
Min Temperature 69 °F 57 °F 44 °F (2000)
Cooling Degree Days 13    
Growing Degree Days 28 (Base 50)    
Moisture  
Dew Point 72 °F    
Average Humidity 81    
Maximum Humidity 100    
Minimum Humidity 58    
Precipitation  
Precipitation 0.00 in - - ()
Sea Level Pressure  
Sea Level Pressure 29.69 in    
Wind  
Wind Speed 2 mph (South)    
Max Wind Speed 13 mph    
Max Gust Speed 17 mph    
Visibility 10 miles    
Events Thunderstorm    
Averages and records for this station are not official NWS values.
T = Trace of Precipitation, MM = Missing Value Source: NWS Daily Summary

Daily Weather History Graph

Daily Weather History Graph

Search for Another Location

Airport or City:

Astronomy

Jul. 18, 2019 Rise Set
Actual Time 5:42 AM CDT 8:58 PM CDT
Civil Twilight 5:06 AM CDT 9:34 PM CDT
Nautical Twilight 4:19 AM CDT 10:20 PM CDT
Astronomical Twilight 3:20 AM CDT 11:18 PM CDT
Moon 10:20 PM CDT (7/18) 7:14 AM CDT (7/18)
Length of Visible Light 16h 27m
Length of Day
15h 15m
Full, 97% of the Moon is Illuminated
Jul 18
Full
Jul 24
Last Quarter
Jul 31
New
Aug 7
First Quarter
Aug 15
Full

Hourly Weather History & Observations

Time (CDT) Temp. Heat Index Dew Point Humidity Pressure Visibility Wind Dir Wind Speed Gust Speed Precip Events Conditions
12:15 AM 69.8 °F - 66.2 °F 88% 29.74 in 7.0 mi Calm Calm - N/A   Clear
12:38 AM 69.8 °F - 68.0 °F 94% 29.73 in 1.2 mi Calm Calm - N/A   Mostly Cloudy
12:56 AM 69.8 °F - 68.0 °F 94% 29.72 in 10.0 mi Calm Calm - N/A   Scattered Clouds
1:15 AM 69.8 °F - 69.8 °F 100% 29.72 in 10.0 mi South 3.5 mph - N/A   Scattered Clouds
1:16 AM 69.8 °F - 69.8 °F 100% 29.72 in 10.0 mi Calm Calm - N/A   Scattered Clouds
1:35 AM 69.8 °F - 69.8 °F 100% 29.72 in 10.0 mi Calm Calm - N/A   Clear
1:59 AM 69.8 °F - 68.0 °F 94% 29.71 in 5.0 mi Calm Calm - N/A   Clear
2:17 AM 69.8 °F - 68.0 °F 94% 29.72 in 1.5 mi SSE 4.6 mph - N/A   Clear
2:35 AM 71.6 °F - 69.8 °F 94% 29.73 in 10.0 mi SSE 3.5 mph - N/A   Scattered Clouds
2:36 AM 71.6 °F - 69.8 °F 94% 29.73 in 10.0 mi SSE 3.5 mph - N/A   Scattered Clouds
2:55 AM 71.6 °F - 69.8 °F 94% 29.73 in 10.0 mi Calm Calm - N/A   Mostly Cloudy
3:15 AM 71.6 °F - 69.8 °F 94% 29.71 in 10.0 mi Calm Calm - N/A   Mostly Cloudy
3:20 AM 71.6 °F - 69.8 °F 94% 29.71 in 10.0 mi Calm Calm - N/A   Mostly Cloudy
3:38 AM 71.6 °F - 69.8 °F 94% 29.70 in 10.0 mi Calm Calm - N/A   Mostly Cloudy
3:56 AM 71.6 °F - 69.8 °F 94% 29.68 in 10.0 mi Calm Calm - N/A   Scattered Clouds
4:15 AM 69.8 °F - 69.8 °F 100% 29.70 in 10.0 mi Calm Calm - N/A   Scattered Clouds
4:16 AM 69.8 °F - 69.8 °F 100% 29.69 in 10.0 mi Calm Calm - N/A   Scattered Clouds
4:35 AM 71.6 °F - 69.8 °F 94% 29.70 in 10.0 mi Calm Calm - N/A Thunderstorm Mostly Cloudy
4:36 AM 71.6 °F - 69.8 °F 94% 29.70 in 10.0 mi Calm Calm - N/A Thunderstorm Mostly Cloudy
4:59 AM 71.6 °F - 69.8 °F 94% 29.70 in 10.0 mi Calm Calm - N/A   Scattered Clouds
5:17 AM 71.6 °F - 69.8 °F 94% 29.70 in 10.0 mi Calm Calm - N/A   Mostly Cloudy
5:35 AM 71.6 °F - 69.8 °F 94% 29.71 in 10.0 mi Calm Calm - N/A   Scattered Clouds
5:55 AM 71.6 °F - 69.8 °F 94% 29.70 in 10.0 mi Calm Calm - N/A   Scattered Clouds
5:56 AM 71.6 °F - 69.8 °F 94% 29.71 in 10.0 mi Calm Calm - N/A   Scattered Clouds
6:15 AM 71.6 °F - 69.8 °F 94% 29.71 in 10.0 mi Calm Calm - N/A   Scattered Clouds
6:20 AM 71.6 °F - 69.8 °F 94% 29.72 in 10.0 mi Calm Calm - N/A   Scattered Clouds
6:38 AM 71.6 °F - 69.8 °F 94% 29.71 in 10.0 mi Calm Calm - N/A   Scattered Clouds
6:56 AM 71.6 °F - 71.6 °F 100% 29.71 in 10.0 mi SSE 3.5 mph - N/A   Clear
7:15 AM 73.4 °F - 71.6 °F 94% 29.70 in 10.0 mi SSE 4.6 mph - N/A   Clear
7:16 AM 73.4 °F - 71.6 °F 94% 29.70 in 10.0 mi SSE 3.5 mph - N/A   Clear
7:35 AM 75.2 °F - 71.6 °F 89% 29.70 in 10.0 mi SSW 3.5 mph - N/A   Clear
7:58 AM 77.0 °F - 71.6 °F 83% 29.71 in 10.0 mi Calm Calm - N/A   Clear
8:15 AM 78.8 °F - 71.6 °F 78% 29.71 in 10.0 mi Calm Calm - N/A   Clear
8:35 AM 78.8 °F - 71.6 °F 78% 29.69 in 10.0 mi South 3.5 mph - N/A   Clear
8:36 AM 78.8 °F - 71.6 °F 78% 29.69 in 10.0 mi South 3.5 mph - N/A   Clear
8:55 AM 78.8 °F - 71.6 °F 78% 29.70 in 10.0 mi WSW 3.5 mph - N/A   Clear
9:19 AM 80.6 °F 84.6 °F 71.6 °F 74% 29.69 in 10.0 mi SSW 4.6 mph - N/A   Clear
9:37 AM 80.6 °F 84.6 °F 71.6 °F 74% 29.70 in 10.0 mi SSW 3.5 mph - N/A   Scattered Clouds
9:55 AM 80.6 °F 84.6 °F 71.6 °F 74% 29.69 in 10.0 mi SSW 3.5 mph - N/A   Scattered Clouds
10:15 AM 82.4 °F 87.2 °F 71.6 °F 70% 29.69 in 10.0 mi SSW 3.5 mph - N/A   Clear
10:16 AM 82.4 °F 87.2 °F 71.6 °F 70% 29.69 in 10.0 mi South 4.6 mph - N/A   Clear
10:35 AM 84.2 °F 89.6 °F 71.6 °F 66% 29.69 in 10.0 mi South 6.9 mph - N/A   Scattered Clouds
10:40 AM 84.2 °F 89.6 °F 71.6 °F 66% 29.69 in 10.0 mi South 5.8 mph - N/A   Scattered Clouds
10:58 AM 84.2 °F 89.6 °F 71.6 °F 66% 29.69 in 10.0 mi SSW 6.9 mph - N/A   Clear
11:16 AM 84.2 °F 89.6 °F 71.6 °F 66% 29.69 in 10.0 mi South 8.1 mph - N/A   Scattered Clouds
11:35 AM 84.2 °F 89.6 °F 71.6 °F 66% 29.70 in 10.0 mi SSW 6.9 mph - N/A   Scattered Clouds
11:55 AM 84.2 °F 89.6 °F 71.6 °F 66% 29.69 in 10.0 mi South 6.9 mph - N/A   Scattered Clouds
12:18 PM 84.2 °F 90.9 °F 73.4 °F 70% 29.69 in 10.0 mi South 6.9 mph - N/A   Mostly Cloudy
12:36 PM 86.0 °F 93.4 °F 73.4 °F 66% 29.68 in 10.0 mi SSW 10.4 mph 16.1 mph N/A   Scattered Clouds
12:55 PM 84.2 °F 89.6 °F 71.6 °F 66% 29.68 in 10.0 mi SSW 8.1 mph - N/A   Scattered Clouds
12:56 PM 84.2 °F 89.6 °F 71.6 °F 66% 29.68 in 10.0 mi SSW 9.2 mph - N/A   Scattered Clouds
1:15 PM 84.2 °F 89.6 °F 71.6 °F 66% 29.67 in 10.0 mi South 8.1 mph - N/A   Clear
1:16 PM 84.2 °F 89.6 °F 71.6 °F 66% 29.67 in 10.0 mi South 8.1 mph - N/A   Clear
1:38 PM 87.8 °F 95.6 °F 73.4 °F 62% 29.67 in 10.0 mi South 12.7 mph 17.3 mph N/A   Clear
1:56 PM 84.2 °F 90.9 °F 73.4 °F 70% 29.67 in 10.0 mi South 8.1 mph 17.3 mph N/A   Scattered Clouds
2:15 PM 84.2 °F 90.9 °F 73.4 °F 70% 29.67 in 10.0 mi South 10.4 mph - N/A   Scattered Clouds
2:35 PM 84.2 °F 90.9 °F 73.4 °F 70% 29.67 in 10.0 mi SSW 8.1 mph - N/A   Clear
2:59 PM 86.0 °F 93.4 °F 73.4 °F 66% 29.67 in 10.0 mi South 9.2 mph - N/A   Clear
3:17 PM 87.8 °F 95.6 °F 73.4 °F 62% 29.66 in 10.0 mi South 4.6 mph - N/A   Clear
3:35 PM 87.8 °F 95.6 °F 73.4 °F 62% 29.66 in 10.0 mi SW 5.8 mph - N/A   Scattered Clouds
3:36 PM 87.8 °F 95.6 °F 73.4 °F 62% 29.66 in 10.0 mi SW 5.8 mph - N/A   Scattered Clouds
3:55 PM 87.8 °F 95.6 °F 73.4 °F 62% 29.66 in 10.0 mi South 8.1 mph - N/A   Clear
3:56 PM 87.8 °F 95.6 °F 73.4 °F 62% 29.66 in 10.0 mi SSW 8.1 mph - N/A   Clear
4:19 PM 87.8 °F 93.8 °F 71.6 °F 58% 29.66 in 10.0 mi SSW 9.2 mph - N/A   Clear
4:37 PM 86.0 °F 93.4 °F 73.4 °F 66% 29.66 in 10.0 mi South 8.1 mph 16.1 mph N/A   Clear
4:55 PM 84.2 °F 90.9 °F 73.4 °F 70% 29.66 in 10.0 mi South 9.2 mph - N/A   Scattered Clouds
5:15 PM 84.2 °F 90.9 °F 73.4 °F 70% 29.67 in 10.0 mi South 5.8 mph - N/A   Clear
5:35 PM 84.2 °F 90.9 °F 73.4 °F 70% 29.67 in 10.0 mi South 4.6 mph - N/A   Clear
5:58 PM 84.2 °F 92.3 °F 75.2 °F 74% 29.66 in 10.0 mi South 3.5 mph - N/A   Clear
6:16 PM 84.2 °F 90.9 °F 73.4 °F 70% 29.66 in 10.0 mi SSW 4.6 mph - N/A   Clear
6:35 PM 82.4 °F 88.2 °F 73.4 °F 74% 29.66 in 10.0 mi SSW 3.5 mph - N/A   Clear
6:55 PM 84.2 °F 90.9 °F 73.4 °F 70% 29.66 in 10.0 mi South 3.5 mph - N/A   Clear
7:19 PM 84.2 °F 90.9 °F 73.4 °F 70% 29.66 in 10.0 mi Calm Calm - N/A   Clear
7:37 PM 82.4 °F 88.2 °F 73.4 °F 74% 29.66 in 10.0 mi Calm Calm - N/A   Scattered Clouds
7:55 PM 82.4 °F 89.5 °F 75.2 °F 79% 29.66 in 10.0 mi Calm Calm - N/A   Scattered Clouds
8:15 PM 82.4 °F 89.5 °F 75.2 °F 79% 29.66 in 10.0 mi Calm Calm - N/A   Scattered Clouds
8:35 PM 82.4 °F 89.5 °F 75.2 °F 79% 29.67 in 10.0 mi Calm Calm - N/A   Clear
8:58 PM 80.6 °F 86.2 °F 75.2 °F 84% 29.68 in 10.0 mi SSE 3.5 mph - N/A   Scattered Clouds
9:16 PM 78.8 °F - 73.4 °F 83% 29.68 in 10.0 mi Calm Calm - N/A   Scattered Clouds
9:35 PM 78.8 °F - 73.4 °F 83% 29.68 in 10.0 mi Calm Calm - N/A   Scattered Clouds
9:55 PM 75.2 °F - 73.4 °F 94% 29.67 in 10.0 mi Calm Calm - N/A   Scattered Clouds
10:19 PM 75.2 °F - 73.4 °F 94% 29.67 in 10.0 mi Calm Calm - N/A   Clear
10:37 PM 73.4 °F - 71.6 °F 94% 29.67 in 10.0 mi Calm Calm - N/A   Clear
10:56 PM 73.4 °F - 71.6 °F 94% 29.67 in 7.0 mi Calm Calm - N/A   Clear
11:15 PM 73.4 °F - 71.6 °F 94% 29.67 in 10.0 mi Calm Calm - N/A   Clear
11:35 PM 71.6 °F - 69.8 °F 94% 29.67 in 7.0 mi Calm Calm - N/A   Clear
11:58 PM 71.6 °F - 69.8 °F 94% 29.67 in 1.2 mi Calm Calm - N/A   Clear